Volver al catálogo

NIMBUS 2 DEB

ActivoLEO
NORAD 28618·DEBRIS·🇺🇸 United States

Lanzado May 15, 1966 desde Vandenberg Space Force Base

Loading…

Próximos Pases (próximas 24 horas)

TLE

ObsoletoSource: Space-Track

Época: Sep 7, 2026, 08:02 UTC

1 28618U 66040AH  26250.33529463  .00003547  00000-0  24634-2 0  9991
2 28618 100.2521  87.8301 0033837 260.0884 275.9610 13.99352099660986

Sigue NIMBUS 2 DEB en tiempo real con AllMySat

Download on the App Store